RYR445 EDDF-EDDS

Flight info

Callsign RYR445
Flight time 0h 24m
Altitude 17000
Route ANEKI2L/18 ANEKI Y163 NEKLO Y171 INKAM N850 KRH T128 BADSO BADSO2A
Aircraft B738/M-SDE2E3FGHIRWXY/LB1

Departure

Time 2026-05-04 15:36
Airport Frankfurt Main Airport (EDDF)

Arrival

Time 2026-05-04 16:00
Airport Stuttgart Airport (EDDS)
Time Latitude Longitude Altitude Speed Heading
2026-05-04 14:52 50.03800 8.54488 355 ft 0 kts 159°
2026-05-04 15:28 50.03785 8.54497 349 ft 6 kts 160°
2026-05-04 15:28 50.03738 8.54518 348 ft 8 kts 176°
2026-05-04 15:28 50.03677 8.54395 350 ft 8 kts 248°
2026-05-04 15:29 50.03656 8.54312 348 ft 9 kts 249°
2026-05-04 15:30 50.03539 8.53820 347 ft 18 kts 250°
2026-05-04 15:30 50.03444 8.53420 350 ft 13 kts 249°
2026-05-04 15:31 50.03367 8.53096 347 ft 18 kts 249°
2026-05-04 15:31 50.03319 8.52896 353 ft 21 kts 250°
2026-05-04 15:32 50.03287 8.52766 350 ft 0 kts 249°
2026-05-04 15:34 50.03259 8.52676 352 ft 8 kts 232°
2026-05-04 15:34 50.03211 8.52618 348 ft 9 kts 206°
2026-05-04 15:34 50.03138 8.52595 345 ft 0 kts 182°
2026-05-04 15:35 50.03129 8.52595 345 ft 16 kts 180°
2026-05-04 15:35 50.02675 8.52601 353 ft 112 kts 180°
2026-05-04 15:36 50.00198 8.52654 986 ft 212 kts 180°
2026-05-04 15:36 49.98680 8.52741 1927 ft 216 kts 181°
2026-05-04 15:36 49.97211 8.52836 2881 ft 208 kts 180°
2026-05-04 15:37 49.95676 8.52931 3308 ft 235 kts 179°
2026-05-04 15:37 49.94012 8.53041 3917 ft 239 kts 179°
2026-05-04 15:37 49.92336 8.53157 3990 ft 243 kts 180°
2026-05-04 15:37 49.90649 8.53275 3980 ft 240 kts 180°
2026-05-04 15:38 49.89005 8.53393 3991 ft 234 kts 180°
2026-05-04 15:38 49.87384 8.53506 3996 ft 230 kts 180°
2026-05-04 15:38 49.85793 8.53618 4068 ft 231 kts 179°
2026-05-04 15:38 49.84168 8.53727 4547 ft 236 kts 178°
2026-05-04 15:39 49.82549 8.53842 5652 ft 228 kts 178°
2026-05-04 15:39 49.80987 8.53951 6716 ft 223 kts 178°
2026-05-04 15:39 49.77838 8.54152 8384 ft 231 kts 182°
2026-05-04 15:40 49.76143 8.54006 8730 ft 257 kts 186°
2026-05-04 15:40 49.74332 8.53745 9465 ft 265 kts 187°
2026-05-04 15:40 49.72483 8.53469 10307 ft 269 kts 187°
2026-05-04 15:40 49.70561 8.53185 10772 ft 286 kts 187°
2026-05-04 15:41 49.68500 8.52888 10962 ft 311 kts 187°
2026-05-04 15:41 49.66222 8.52567 10986 ft 336 kts 187°
2026-05-04 15:41 49.63810 8.52236 10984 ft 359 kts 187°
2026-05-04 15:41 49.61271 8.51893 10985 ft 373 kts 186°
2026-05-04 15:42 49.58707 8.51553 10973 ft 374 kts 186°
2026-05-04 15:42 49.56093 8.51209 11202 ft 378 kts 186°
2026-05-04 15:42 49.53461 8.50862 11967 ft 380 kts 186°
2026-05-04 15:42 49.50803 8.50513 12783 ft 381 kts 186°
2026-05-04 15:43 49.48174 8.50166 13527 ft 385 kts 187°
2026-05-04 15:43 49.45472 8.49810 14169 ft 389 kts 187°
2026-05-04 15:43 49.42756 8.49452 14805 ft 394 kts 187°
2026-05-04 15:43 49.40006 8.49090 15461 ft 397 kts 187°
2026-05-04 15:44 49.37242 8.48727 16102 ft 400 kts 187°
2026-05-04 15:44 49.34457 8.48361 16720 ft 402 kts 187°
2026-05-04 15:44 49.31645 8.47992 16957 ft 410 kts 186°
2026-05-04 15:44 49.28769 8.48027 16965 ft 417 kts 174°
2026-05-04 15:45 49.25949 8.49101 16983 ft 420 kts 162°
2026-05-04 15:45 49.23252 8.50869 16979 ft 420 kts 160°
2026-05-04 15:45 49.20528 8.52474 16961 ft 420 kts 162°
2026-05-04 15:45 49.17773 8.53972 16970 ft 419 kts 163°
2026-05-04 15:46 49.15023 8.55431 16937 ft 417 kts 163°
2026-05-04 15:46 49.12321 8.56858 16633 ft 404 kts 163°
2026-05-04 15:46 49.09743 8.58220 16382 ft 392 kts 163°
2026-05-04 15:46 49.07171 8.59578 16140 ft 387 kts 163°
2026-05-04 15:47 49.04625 8.60899 15881 ft 386 kts 163°
2026-05-04 15:47 49.02087 8.62221 15638 ft 385 kts 163°
2026-05-04 15:47 48.99554 8.63547 15389 ft 384 kts 163°
2026-05-04 15:47 48.97031 8.64869 15146 ft 383 kts 163°
2026-05-04 15:48 48.94507 8.66186 14888 ft 383 kts 163°
2026-05-04 15:48 48.91992 8.67495 14662 ft 382 kts 163°
2026-05-04 15:48 48.86967 8.70103 14181 ft 381 kts 163°
2026-05-04 15:49 48.84462 8.71401 13950 ft 380 kts 163°
2026-05-04 15:49 48.81961 8.72697 13633 ft 381 kts 163°
2026-05-04 15:49 48.79435 8.74003 12925 ft 384 kts 163°
2026-05-04 15:49 48.76912 8.75308 12263 ft 382 kts 163°
2026-05-04 15:50 48.74401 8.76600 11625 ft 378 kts 163°
2026-05-04 15:50 48.71918 8.77856 11016 ft 374 kts 163°
2026-05-04 15:50 48.69492 8.79070 10395 ft 360 kts 163°
2026-05-04 15:50 48.67159 8.80227 9780 ft 347 kts 163°
2026-05-04 15:51 48.64892 8.81339 9132 ft 337 kts 163°
2026-05-04 15:51 48.62689 8.82404 8484 ft 329 kts 163°
2026-05-04 15:51 48.60526 8.83436 7845 ft 322 kts 163°
2026-05-04 15:51 48.58344 8.83967 7209 ft 316 kts 182°
2026-05-04 15:52 48.56258 8.83148 6702 ft 308 kts 207°
2026-05-04 15:52 48.54562 8.81245 6229 ft 302 kts 223°
2026-05-04 15:52 48.53347 8.78705 5684 ft 299 kts 246°
2026-05-04 15:52 48.52959 8.75622 5214 ft 295 kts 273°
2026-05-04 15:53 48.53500 8.72777 5037 ft 280 kts 301°
2026-05-04 15:53 48.54791 8.70705 5005 ft 268 kts 329°
2026-05-04 15:53 48.56499 8.69865 4982 ft 254 kts
2026-05-04 15:53 48.58129 8.70627 4988 ft 239 kts 39°
2026-05-04 15:54 48.59088 8.72558 5016 ft 232 kts 65°
2026-05-04 15:54 48.59773 8.74814 4998 ft 234 kts 66°
2026-05-04 15:54 48.60410 8.77097 4999 ft 236 kts 70°
2026-05-04 15:54 48.60943 8.79448 5001 ft 237 kts 73°
2026-05-04 15:55 48.61416 8.81844 5004 ft 237 kts 75°
2026-05-04 15:55 48.61869 8.84247 4996 ft 238 kts 75°
2026-05-04 15:55 48.62315 8.86654 4999 ft 235 kts 75°
2026-05-04 15:55 48.62746 8.88970 4981 ft 224 kts 75°
2026-05-04 15:56 48.63160 8.91191 4957 ft 214 kts 75°
2026-05-04 15:56 48.63559 8.93335 4903 ft 203 kts 75°
2026-05-04 15:56 48.63941 8.95384 4635 ft 201 kts 74°
2026-05-04 15:56 48.64318 8.97402 4366 ft 197 kts 74°
2026-05-04 15:57 48.64691 8.99393 4094 ft 194 kts 73°
2026-05-04 15:57 48.65046 9.01297 3857 ft 189 kts 73°
2026-05-04 15:57 48.65406 9.03215 3598 ft 185 kts 72°
2026-05-04 15:57 48.65756 9.05079 3364 ft 183 kts 73°
2026-05-04 15:58 48.66101 9.06925 3122 ft 186 kts 73°
2026-05-04 15:58 48.66451 9.08789 2858 ft 182 kts 73°
2026-05-04 15:58 48.66790 9.10590 2655 ft 171 kts 72°
2026-05-04 15:58 48.67105 9.12265 2412 ft 162 kts 72°
2026-05-04 15:59 48.67398 9.13815 2185 ft 146 kts 71°
2026-05-04 15:59 48.67655 9.15226 2056 ft 136 kts 71°
2026-05-04 15:59 48.67838 9.16177 1870 ft 142 kts 72°
2026-05-04 15:59 48.68093 9.17617 1746 ft 140 kts 69°
2026-05-04 16:00 48.68397 9.19034 1507 ft 140 kts 70°
2026-05-04 16:00 48.68653 9.20442 1297 ft 136 kts 70°
2026-05-04 16:00 48.68876 9.21582 1287 ft 71 kts 74°
2026-05-04 16:00 48.68927 9.21850 1286 ft 0 kts 73°
2026-05-04 16:01 48.68952 9.21993 1287 ft 24 kts 75°
2026-05-04 16:01 48.69023 9.22363 1289 ft 43 kts 73°
2026-05-04 16:01 48.69142 9.22525 1287 ft 19 kts 343°
2026-05-04 16:02 48.69174 9.22510 1286 ft 0 kts 343°
2026-05-04 16:02 48.69175 9.22510 1286 ft 1 kts 343°
2026-05-04 16:03 48.69221 9.22489 1284 ft 13 kts 343°
2026-05-04 16:03 48.69276 9.22356 1286 ft 22 kts 256°
2026-05-04 16:03 48.69226 9.22080 1284 ft 32 kts 255°
2026-05-04 16:03 48.69158 9.21725 1286 ft 35 kts 255°
2026-05-04 16:04 48.69092 9.21378 1287 ft 22 kts 253°
2026-05-04 16:04 48.69016 9.20978 1287 ft 23 kts 254°
2026-05-04 16:04 48.68983 9.20807 1284 ft 7 kts 254°
2026-05-04 16:05 48.68964 9.20710 1286 ft 12 kts 256°
2026-05-04 16:05 48.68992 9.20582 1286 ft 15 kts 312°
2026-05-04 16:05 48.69049 9.20378 1284 ft 6 kts 255°
2026-05-04 16:06 48.69036 9.20312 1284 ft 8 kts 254°
2026-05-04 16:06 48.68979 9.20029 1285 ft 13 kts 245°
2026-05-04 16:07 48.68963 9.20007 1285 ft 1 kts 198°
2026-05-04 16:07 48.68915 9.20023 1286 ft 1 kts 165°
2026-05-04 16:08 48.68911 9.20024 1286 ft 0 kts 165°